Simultaneous Nadir Overpasses (SNOs) Predictions

Prediction of SNOs between AQUA and METOP-A Satellite Orbit:

Table of predicted SNOs for the next 14.0 days since TLE Epoch: 10/14/2016
Index Date (AQUA) Time (AQUA) Lat,Lon (AQUA) SZA (AQUA ) Date (METOP-A) Time (METOP-A) Lat,Lon (METOP-A) SZA (METOP-A ) Distance(km) Time Diff (sec)
1 10/15/2016 20:14:40 73.80,-129.48 82.62 10/15/2016 20:14:06 73.82,-129.51 82.65 2.93 34
2 10/15/2016 21:04:07 -73.89, 37.96 97.28 10/15/2016 21:04:46 -73.89, 37.99 97.27 1.05 39
3 10/18/2016 15:48:55 73.84, -63.14 83.70 10/18/2016 15:48:28 73.85, -63.03 83.70 3.41 27
4 10/18/2016 16:38:21 -73.88, 104.42 96.26 10/18/2016 16:39:09 -73.87, 104.35 96.27 2.27 48
5 10/21/2016 10:33:30 -73.32,-163.22 95.85 10/21/2016 10:32:22 -73.22,-165.40 95.92 70.61 68
6 10/21/2016 11:23:07 73.81, 3.38 84.66 10/21/2016 11:22:50 73.82, 3.31 84.68 2.53 17
7 10/21/2016 12:12:34 -73.89, 170.84 95.24 10/21/2016 12:13:30 -73.89, 170.82 95.24 0.78 56
8 10/24/2016 06:07:49 -73.61, -97.39 94.57 10/24/2016 06:06:37 -73.59, -98.15 94.58 24.02 72
9 10/24/2016 06:57:21 73.84, 69.74 85.69 10/24/2016 06:57:12 73.83, 69.76 85.68 1.31 9
10 10/24/2016 07:46:48 -73.92,-122.79 94.23 10/24/2016 07:47:52 -73.91,-122.72 94.23 2.31 64
11 10/27/2016 01:42:05 -73.77, -31.28 93.45 10/27/2016 01:40:56 -73.75, -31.35 93.46 2.75 69
12 10/27/2016 02:31:34 73.85, 136.18 86.65 10/27/2016 02:31:34 73.84, 136.19 86.65 0.86 0




NCC Satellite Simultaneous Nadir Overpasses (SNOs) Prediction Service
